FW0765 Weather Reports


Display with metric or nautical units.
time (UTC)temp
F
wind
direction
speed
MPH
gust
MPH
rain 1hr
in
rain 24hr
in
rain mn
in
humidity
%
barometer
mb
20260901020026 89 154 3.0 10.0 0.00 0.00 0.00 43 1010.1
20260901014526 90 167 4.0 8.0 0.00 0.00 0.00 42 1009.8
20260901013039 91 138 4.0 10.0 0.00 0.00 0.00 41 1009.6
20260901011534 92 206 7.0 12.0 0.00 0.00 0.00 40 1009.4
20260901010025 92 154 8.0 12.0 0.00 0.00 0.00 40 1009.4
20260901004524 93 148 3.0 10.0 0.00 0.00 0.00 38 1009.5
20260901003025 94 213 5.0 14.0 0.00 0.00 0.00 37 1009.3
20260901001523 95 155 5.0 14.0 0.00 0.00 0.00 36 1009.2
20260901000029 96 150 6.0 13.0 0.00 0.00 0.00 35 1009.0
20260831234522 97 156 6.0 14.0 0.00 0.00 0.00 34 1008.9
20260831233024 97 159 4.0 13.0 0.00 0.00 0.00 31 1008.9
20260831231521 97 150 6.0 11.0 0.00 0.00 0.00 32 1008.9
20260831230020 97 151 3.0 12.0 0.00 0.00 0.00 31 1008.9
20260831224519 97 74 5.0 12.0 0.00 0.00 0.00 32 1009.1
20260831223018 97 91 4.0 13.0 0.00 0.00 0.00 33 1009.2
20260831221516 97 188 4.0 10.0 0.00 0.00 0.00 34 1009.2
20260831220015 98 170 5.0 12.0 0.00 0.00 0.00 32 1009.4
20260831214518 98 196 5.0 9.0 0.00 0.00 0.00 33 1009.8
20260831213011 99 208 4.0 9.0 0.00 0.00 0.00 32 1009.8
20260831211512 97 122 4.0 10.0 0.00 0.00 0.00 33 1010.0
20260831210006 98 232 7.0 10.0 0.00 0.00 0.00 32 1010.3
20260831204504 98 115 6.0 12.0 0.00 0.00 0.00 34 1010.3
20260831203137 97 199 2.0 10.0 0.00 0.00 0.00 37 1010.6
20260831201606 96 161 7.0 14.0 0.00 0.00 0.00 36 1010.7
20260831200139 96 173 4.0 11.0 0.00 0.00 0.00 36 1010.9
20260831194605 95 173 4.0 11.0 0.00 0.00 0.00 36 1011.1
20260831193057 95 185 2.0 12.0 0.00 0.00 0.00 36 1011.2
20260831191559 96 178 6.0 14.0 0.00 0.00 0.00 36 1011.4
20260831190053 96 179 3.0 9.0 0.00 0.00 0.00 38 1011.5
20260831184549 93 201 4.0 10.0 0.00 0.00 0.00 40 1011.8
20260831183048 93 137 5.0 9.0 0.00 0.00 0.00 39 1012.3
20260831181552 93 163 4.0 12.0 0.00 0.00 0.00 42 1012.6
20260831180045 92 252 6.0 11.0 0.00 0.00 0.00 44 1012.8
20260831174550 93 170 6.0 14.0 0.00 0.00 0.00 45 1012.9
20260831173042 91 154 7.0 14.0 0.00 0.00 0.00 47 1013.0
20260831171538 92 215 5.0 14.0 0.00 0.00 0.00 48 1013.0
20260831170039 91 138 6.0 11.0 0.00 0.00 0.00 49 1013.3
20260831164530 89 192 8.0 14.0 0.00 0.00 0.00 51 1013.3
20260831163028 89 173 8.0 16.0 0.00 0.00 0.00 52 1013.3
20260831161524 88 207 11.0 14.0 0.00 0.00 0.00 54 1013.3
20260831160022 87 209 8.0 15.0 0.00 0.00 0.00 55 1013.4
20260831154521 86 181 7.0 16.0 0.00 0.00 0.00 57 1013.3
20260831153016 85 187 7.0 16.0 0.00 0.00 0.00 57 1013.2
20260831151514 84 234 8.0 15.0 0.00 0.00 0.00 58 1013.1
20260831150012 83 227 9.0 16.0 0.00 0.00 0.00 59 1013.2
20260831144512 82 207 10.0 18.0 0.00 0.00 0.00 62 1013.0
20260831143015 81 171 8.0 17.0 0.00 0.00 0.00 65 1013.1
20260831141510 80 209 7.0 13.0 0.00 0.00 0.00 68 1013.2
20260831140021 79 198 9.0 14.0 0.00 0.00 0.00 70 1013.0
20260831134507 79 172 6.0 15.0 0.00 0.00 0.00 72 1012.9
20260831133004 77 198 7.0 13.0 0.00 0.00 0.00 75 1012.9
20260831131502 76 180 6.0 11.0 0.00 0.00 0.00 77 1012.7
20260831130101 75 157 6.0 10.0 0.00 0.00 0.00 77 1012.3
20260831124558 75 169 7.0 12.0 0.00 0.00 0.00 77 1012.2
20260831123056 74 180 6.0 12.0 0.00 0.00 0.00 78 1012.0
20260831121555 74 190 4.0 11.0 0.00 0.00 0.00 77 1011.9
20260831120119 75 184 6.0 12.0 0.00 0.00 0.00 76 1011.7
20260831114550 75 170 7.0 13.0 0.00 0.00 0.00 75 1011.8
20260831113052 75 127 6.0 11.0 0.00 0.00 0.00 74 1011.7
20260831111549 75 194 6.0 16.0 0.00 0.00 0.00 74 1011.8
20260831110044 76 172 7.0 13.0 0.00 0.00 0.00 74 1011.8
20260831104542 76 200 8.0 14.0 0.00 0.00 0.00 74 1011.8
20260831103042 76 175 6.0 10.0 0.00 0.00 0.00 73 1011.9
20260831101540 77 194 7.0 13.0 0.00 0.00 0.00 72 1011.9
20260831100038 77 212 6.0 15.0 0.00 0.00 0.00 71 1012.1
20260831094534 77 206 5.0 13.0 0.00 0.00 0.00 70 1011.9
20260831093033 77 209 8.0 13.0 0.00 0.00 0.00 70 1012.0
20260831091533 78 213 6.0 11.0 0.00 0.00 0.00 70 1011.9
20260831090028 78 172 7.0 15.0 0.00 0.00 0.00 69 1011.9
20260831084528 78 198 7.0 11.0 0.00 0.00 0.00 68 1011.8
20260831083027 78 201 7.0 14.0 0.00 0.00 0.00 67 1011.5
20260831081525 79 211 7.0 12.0 0.00 0.00 0.00 66 1011.6
20260831080019 79 173 8.0 15.0 0.00 0.00 0.00 64 1011.6
20260831074521 80 203 8.0 13.0 0.00 0.00 0.00 63 1011.6
20260831073016 80 182 6.0 14.0 0.00 0.00 0.00 62 1011.5
20260831071511 80 184 6.0 11.0 0.00 0.00 0.00 61 1011.5
20260831070010 80 164 3.0 9.0 0.00 0.00 0.00 60 1011.4
20260831064506 80 169 3.0 9.0 0.00 0.00 0.00 59 1011.4
20260831063003 81 154 5.0 10.0 0.00 0.00 0.00 58 1011.4
20260831061504 82 178 5.0 10.0 0.00 0.00 0.00 57 1011.4
20260831054557 83 171 5.0 12.0 0.00 0.00 0.00 55 1011.2
20260831053124 83 182 7.0 11.0 0.00 0.00 0.00 55 1011.2
20260831051602 83 161 5.0 11.0 0.00 0.00 0.00 55 1011.1
20260831050051 84 163 6.0 11.0 0.00 0.00 0.00 54 1011.1
20260831044549 84 175 6.0 12.0 0.00 0.00 0.00 54 1011.0
20260831043051 84 156 5.0 11.0 0.00 0.00 0.00 54 1011.1
20260831041548 85 148 4.0 14.0 0.00 0.00 0.00 53 1010.9
20260831040050 85 196 5.0 9.0 0.00 0.00 0.00 52 1010.9
20260831034551 86 127 6.0 10.0 0.00 0.00 0.00 51 1010.8
20260831033103 86 215 5.0 14.0 0.00 0.00 0.00 49 1010.6
20260831031547 86 196 6.0 10.0 0.00 0.00 0.00 48 1010.5
20260831030045 85 192 6.0 11.0 0.00 0.00 0.00 47 1010.3
20260831024545 85 145 4.0 9.0 0.00 0.00 0.00 46 1010.0
20260831023045 85 177 3.0 7.0 0.00 0.00 0.00 44 1009.7
20260831021543 86 175 2.0 5.0 0.00 0.00 0.00 43 1009.6